KB7STN Weather Reports


Display with metric or nautical units.
time (UTC)temp
F
wind
direction
speed
MPH
gust
MPH
rain 1hr
in
rain 24hr
in
rain mn
in
humidity
%
barometer
mb
20260905071514 73 234 0.0 0.0 0.00 0.00 0.00 29 1016.5
20260905071014 73 234 0.0 3.0 0.00 0.00 0.00 28 1016.3
20260905070514 73 234 0.0 5.0 0.00 0.00 0.00 28 1016.3
20260905070014 73 234 0.0 5.0 0.00 0.00 0.00 27 1016.3
20260905065514 74 235 0.0 3.0 0.00 0.00 0.00 27 1016.0
20260905065014 74 233 1.0 4.0 0.00 0.00 0.00 26 1016.0
20260905064514 74 233 1.0 5.0 0.00 0.00 0.00 26 1016.0
20260905064014 74 235 1.0 5.0 0.00 0.00 0.00 26 1015.9
20260905063514 74 221 1.0 7.0 0.00 0.00 0.00 27 1015.8
20260905063014 74 221 1.0 5.0 0.00 0.00 0.00 26 1015.9
20260905062514 74 225 0.0 3.0 0.00 0.00 0.00 27 1015.9
20260905062014 74 225 0.0 3.0 0.00 0.00 0.00 27 1015.7
20260905061514 74 225 1.0 5.0 0.00 0.00 0.00 27 1015.7
20260905061014 74 226 1.0 4.0 0.00 0.00 0.00 27 1015.6
20260905060514 74 226 1.0 8.0 0.00 0.00 0.00 27 1015.5
20260905060014 74 235 0.0 4.0 0.00 0.00 0.00 28 1015.5
20260905055514 74 238 0.0 5.0 0.00 0.00 0.00 28 1015.5
20260905055014 74 236 0.0 2.0 0.00 0.00 0.00 28 1015.4
20260905054514 74 237 0.0 6.0 0.00 0.00 0.00 27 1015.4
20260905054014 75 235 0.0 2.0 0.00 0.00 0.00 28 1015.3
20260905053514 75 234 0.0 3.0 0.00 0.00 0.00 27 1015.3
20260905053014 75 236 0.0 5.0 0.00 0.00 0.00 27 1015.3
20260905052514 75 236 0.0 2.0 0.00 0.00 0.00 27 1015.3
20260905052014 75 236 0.0 3.0 0.00 0.00 0.00 27 1015.3
20260905051514 75 236 0.0 4.0 0.00 0.00 0.00 27 1015.1
20260905051014 74 236 0.0 5.0 0.00 0.00 0.00 27 1015.2
20260905050514 74 236 0.0 7.0 0.00 0.00 0.00 27 1015.2
20260905050014 74 246 0.0 2.0 0.00 0.00 0.00 26 1015.1
20260905045514 74 246 0.0 2.0 0.00 0.00 0.00 26 1015.1
20260905045014 74 246 0.0 1.0 0.00 0.00 0.00 26 1015.1
20260905044514 74 246 0.0 2.0 0.00 0.00 0.00 26 1015.2
20260905044014 74 246 0.0 2.0 0.00 0.00 0.00 26 1015.3
20260905043514 74 246 0.0 5.0 0.00 0.00 0.00 25 1015.2
20260905043014 74 246 0.0 1.0 0.00 0.00 0.00 25 1015.1
20260905042514 74 246 0.0 0.0 0.00 0.00 0.00 25 1015.1
20260905042014 74 246 0.0 0.0 0.00 0.00 0.00 25 1015.0
20260905041514 74 246 0.0 0.0 0.00 0.00 0.00 25 1015.0
20260905041014 74 246 0.0 0.0 0.00 0.00 0.00 24 1014.9
20260905040514 74 246 0.0 0.0 0.00 0.00 0.00 24 1014.8
20260905040014 74 246 0.0 0.0 0.00 0.00 0.00 25 1014.7
20260905035514 74 246 0.0 0.0 0.00 0.00 0.00 25 1014.6
20260905035014 74 246 0.0 0.0 0.00 0.00 0.00 24 1014.6
20260905034514 74 246 0.0 0.0 0.00 0.00 0.00 24 1014.5
20260905034014 74 246 0.0 0.0 0.00 0.00 0.00 24 1014.5
20260905033514 75 246 0.0 0.0 0.00 0.00 0.00 24 1014.4
20260905033014 75 246 0.0 0.0 0.00 0.00 0.00 24 1014.4
20260905032514 76 246 0.0 0.0 0.00 0.00 0.00 23 1014.5
20260905032014 76 246 0.0 3.0 0.00 0.00 0.00 23 1014.3
20260905031514 76 247 0.0 3.0 0.00 0.00 0.00 23 1014.3
20260905031014 76 247 0.0 0.0 0.00 0.00 0.00 24 1014.2
20260905030514 76 247 0.0 0.0 0.00 0.00 0.00 24 1014.3
20260905030014 77 247 0.0 0.0 0.00 0.00 0.00 24 1014.2
20260905025514 77 247 0.0 0.0 0.00 0.00 0.00 23 1014.1
20260905025014 78 247 0.0 0.0 0.00 0.00 0.00 23 1014.0
20260905024514 78 247 0.0 0.0 0.00 0.00 0.00 23 1013.9
20260905024014 79 247 0.0 0.0 0.00 0.00 0.00 23 1013.8
20260905023514 79 247 0.0 0.0 0.00 0.00 0.00 22 1013.7
20260905022514 79 275 1.0 11.0 0.00 0.00 0.00 22 1013.8
20260905022014 79 236 1.0 5.0 0.00 0.00 0.00 22 1013.7
20260905021514 79 240 0.0 6.0 0.00 0.00 0.00 22 1013.6
20260905021014 79 214 0.0 0.0 0.00 0.00 0.00 23 1013.5
20260905020515 80 213 0.0 2.0 0.00 0.00 0.00 23 1013.5
20260905020014 80 215 0.0 3.0 0.00 0.00 0.00 23 1013.5
20260905015514 80 223 0.0 5.0 0.00 0.00 0.00 22 1013.3
20260905015014 80 225 1.0 4.0 0.00 0.00 0.00 22 1013.5
20260905014514 80 218 1.0 7.0 0.00 0.00 0.00 22 1013.4
20260905014014 80 217 1.0 5.0 0.00 0.00 0.00 22 1013.5
20260905013514 80 192 1.0 7.0 0.00 0.00 0.00 22 1013.4
20260905013014 81 184 1.0 8.0 0.00 0.00 0.00 21 1013.5
20260905012515 81 234 1.0 6.0 0.00 0.00 0.00 22 1013.5
20260905012014 81 258 0.0 5.0 0.00 0.00 0.00 22 1013.5
20260905011514 81 254 1.0 4.0 0.00 0.00 0.00 22 1013.4
20260905011015 81 255 1.0 3.0 0.00 0.00 0.00 22 1013.4
20260905010514 81 255 1.0 5.0 0.00 0.00 0.00 22 1013.4
20260905010015 81 256 1.0 4.0 0.00 0.00 0.00 22 1013.3
20260905005515 81 256 0.0 6.0 0.00 0.00 0.00 22 1013.4
20260905005015 82 216 1.0 3.0 0.00 0.00 0.00 22 1013.3
20260905004515 82 216 2.0 7.0 0.00 0.00 0.00 21 1013.3
20260905004015 82 213 2.0 6.0 0.00 0.00 0.00 21 1013.4
20260905003515 82 240 1.0 10.0 0.00 0.00 0.00 21 1013.3
20260905003015 82 280 1.0 6.0 0.00 0.00 0.00 21 1013.3
20260905002515 82 220 1.0 6.0 0.00 0.00 0.00 21 1013.3
20260905002015 82 225 2.0 7.0 0.00 0.00 0.00 21 1013.3
20260905001515 82 236 2.0 7.0 0.00 0.00 0.00 20 1013.4
20260905001015 82 192 2.0 5.0 0.00 0.00 0.00 21 1013.3
20260905000515 83 218 2.0 6.0 0.00 0.00 0.00 20 1013.4
20260905000015 83 243 2.0 9.0 0.00 0.00 0.00 20 1013.3
20260904235515 83 211 1.0 7.0 0.00 0.00 0.00 19 1013.1
20260904235015 83 249 1.0 6.0 0.00 0.00 0.00 20 1013.3
20260904234515 84 252 2.0 6.0 0.00 0.00 0.00 19 1013.4
20260904234015 84 259 2.0 7.0 0.00 0.00 0.00 19 1013.3
20260904233515 84 281 2.0 9.0 0.00 0.00 0.00 19 1013.4
20260904233015 84 203 3.0 5.0 0.00 0.00 0.00 19 1013.2
20260904232515 84 211 3.0 10.0 0.00 0.00 0.00 19 1013.4
20260904232015 84 204 2.0 10.0 0.00 0.00 0.00 19 1013.4
20260904231515 84 206 2.0 8.0 0.00 0.00 0.00 18 1013.5
20260904231015 84 217 2.0 4.0 0.00 0.00 0.00 19 1013.4
20260904230515 84 217 3.0 5.0 0.00 0.00 0.00 18 1013.5
20260904230015 85 237 2.0 6.0 0.00 0.00 0.00 18 1013.6
20260904225515 85 221 2.0 4.0 0.00 0.00 0.00 18 1013.6
20260904225015 85 223 2.0 10.0 0.00 0.00 0.00 18 1013.7
20260904224515 85 281 3.0 10.0 0.00 0.00 0.00 18 1013.6
20260904224015 85 229 2.0 6.0 0.00 0.00 0.00 18 1013.5
20260904223515 84 238 2.0 5.0 0.00 0.00 0.00 18 1013.6
20260904223015 84 242 3.0 6.0 0.00 0.00 0.00 18 1013.6
20260904222515 84 191 2.0 9.0 0.00 0.00 0.00 18 1013.8
20260904222015 84 211 3.0 5.0 0.00 0.00 0.00 18 1013.7
20260904221515 84 217 3.0 8.0 0.00 0.00 0.00 17 1013.9
20260904221015 85 234 2.0 7.0 0.00 0.00 0.00 17 1014.0
20260904220515 85 250 2.0 5.0 0.00 0.00 0.00 18 1014.1
20260904220015 84 229 2.0 9.0 0.00 0.00 0.00 18 1014.0
20260904215515 85 200 2.0 7.0 0.00 0.00 0.00 17 1014.1
20260904215015 85 222 3.0 5.0 0.00 0.00 0.00 18 1014.2
20260904214515 84 221 3.0 8.0 0.00 0.00 0.00 17 1014.2
20260904214015 85 243 2.0 8.0 0.00 0.00 0.00 18 1014.2
20260904213515 84 213 2.0 6.0 0.00 0.00 0.00 18 1014.3
20260904213015 84 215 2.0 6.0 0.00 0.00 0.00 18 1014.3
20260904212515 84 204 2.0 9.0 0.00 0.00 0.00 17 1014.3
20260904212015 84 237 2.0 8.0 0.00 0.00 0.00 17 1014.4
20260904211515 84 220 2.0 8.0 0.00 0.00 0.00 17 1014.4
20260904211015 84 208 2.0 9.0 0.00 0.00 0.00 17 1014.5
20260904210515 84 264 2.0 5.0 0.00 0.00 0.00 18 1014.7
20260904210015 84 261 2.0 7.0 0.00 0.00 0.00 18 1014.7
20260904205515 84 272 2.0 13.0 0.00 0.00 0.00 18 1014.8
20260904205015 84 263 1.0 6.0 0.00 0.00 0.00 17 1014.8
20260904204515 84 270 1.0 4.0 0.00 0.00 0.00 17 1014.7
20260904204015 83 206 1.0 5.0 0.00 0.00 0.00 17 1014.8
20260904203515 83 277 2.0 8.0 0.00 0.00 0.00 18 1014.9
20260904203015 83 209 2.0 8.0 0.00 0.00 0.00 19 1014.8
20260904202515 83 256 2.0 8.0 0.00 0.00 0.00 18 1014.7
20260904202015 82 233 2.0 8.0 0.00 0.00 0.00 19 1015.0
20260904201515 82 236 2.0 9.0 0.00 0.00 0.00 18 1015.0
20260904201015 82 240 2.0 6.0 0.00 0.00 0.00 18 1015.1
20260904200515 82 249 2.0 9.0 0.00 0.00 0.00 18 1015.2
20260904200015 82 242 2.0 9.0 0.00 0.00 0.00 18 1015.3
20260904195515 82 257 2.0 12.0 0.00 0.00 0.00 17 1015.4
20260904195015 82 190 2.0 9.0 0.00 0.00 0.00 18 1015.4
20260904194515 82 191 3.0 7.0 0.00 0.00 0.00 20 1015.1
20260904194015 82 210 2.0 11.0 0.00 0.00 0.00 19 1015.4
20260904193515 82 225 2.0 11.0 0.00 0.00 0.00 20 1015.4
20260904193015 81 220 2.0 10.0 0.00 0.00 0.00 21 1015.3
20260904192515 81 233 2.0 13.0 0.00 0.00 0.00 20 1015.4
20260904192015 81 259 1.0 5.0 0.00 0.00 0.00 21 1015.4
20260904191515 81 266 2.0 4.0 0.00 0.00 0.00 20 1015.5
20260904191015 81 261 2.0 7.0 0.00 0.00 0.00 20 1015.5
20260904190515 81 211 2.0 6.0 0.00 0.00 0.00 20 1015.6
20260904190015 81 220 3.0 7.0 0.00 0.00 0.00 20 1015.7
20260904185515 80 211 3.0 8.0 0.00 0.00 0.00 20 1015.5
20260904185015 80 215 2.0 10.0 0.00 0.00 0.00 21 1015.8
20260904184515 80 248 2.0 9.0 0.00 0.00 0.00 21 1015.8
20260904184015 79 205 2.0 7.0 0.00 0.00 0.00 21 1015.9
20260904183515 79 230 2.0 7.0 0.00 0.00 0.00 21 1016.0
20260904183015 79 193 2.0 7.0 0.00 0.00 0.00 22 1016.2
20260904182515 79 274 3.0 7.0 0.00 0.00 0.00 22 1016.0
20260904182015 79 240 3.0 13.0 0.00 0.00 0.00 22 1016.2
20260904181515 79 219 2.0 6.0 0.00 0.00 0.00 22 1016.2
20260904181015 79 248 2.0 5.0 0.00 0.00 0.00 22 1016.3
20260904180515 79 217 3.0 8.0 0.00 0.00 0.00 22 1016.2
20260904180015 79 273 3.0 14.0 0.00 0.00 0.00 21 1016.3
20260904175515 79 240 2.0 9.0 0.00 0.00 0.00 23 1016.4
20260904175015 79 211 2.0 8.0 0.00 0.00 0.00 24 1016.5
20260904174515 78 260 2.0 10.0 0.00 0.00 0.00 26 1016.3
20260904174015 78 214 2.0 5.0 0.00 0.00 0.00 26 1016.3
20260904173515 78 225 3.0 11.0 0.00 0.00 0.00 27 1016.4
20260904173015 77 268 3.0 8.0 0.00 0.00 0.00 27 1016.5
20260904172515 77 221 3.0 11.0 0.00 0.00 0.00 27 1016.5
20260904172015 77 234 2.0 12.0 0.00 0.00 0.00 27 1016.4
20260904171515 77 240 3.0 10.0 0.00 0.00 0.00 27 1016.5
20260904171015 77 245 3.0 12.0 0.00 0.00 0.00 27 1016.5
20260904170515 77 221 3.0 10.0 0.00 0.00 0.00 28 1016.4
20260904170015 77 222 2.0 8.0 0.00 0.00 0.00 27 1016.7
20260904165515 76 227 2.0 5.0 0.00 0.00 0.00 27 1016.5
20260904165015 76 207 2.0 7.0 0.00 0.00 0.00 27 1016.5
20260904164515 76 206 1.0 7.0 0.00 0.00 0.00 27 1016.6
20260904164015 75 234 1.0 5.0 0.00 0.00 0.00 28 1016.6
20260904163515 75 238 1.0 6.0 0.00 0.00 0.00 28 1016.8
20260904163015 75 270 2.0 13.0 0.00 0.00 0.00 27 1016.7
20260904162515 75 244 1.0 3.0 0.00 0.00 0.00 27 1016.8
20260904162015 75 250 2.0 8.0 0.00 0.00 0.00 29 1016.7
20260904161515 75 251 2.0 6.0 0.00 0.00 0.00 30 1016.7
20260904161015 75 289 1.0 5.0 0.00 0.00 0.00 29 1016.7
20260904160515 74 272 1.0 9.0 0.00 0.00 0.00 29 1016.7
20260904160015 74 150 2.0 7.0 0.00 0.00 0.00 29 1016.7
20260904155515 74 217 1.0 6.0 0.00 0.00 0.00 27 1016.5
20260904155015 74 236 1.0 4.0 0.00 0.00 0.00 28 1016.5
20260904154515 74 236 1.0 5.0 0.00 0.00 0.00 27 1016.5
20260904154015 74 237 1.0 4.0 0.00 0.00 0.00 27 1016.6
20260904153515 73 238 0.0 5.0 0.00 0.00 0.00 27 1016.5
20260904153015 73 238 0.0 3.0 0.00 0.00 0.00 28 1016.6
20260904152515 73 238 0.0 6.0 0.00 0.00 0.00 27 1016.6
20260904152015 73 238 0.0 4.0 0.00 0.00 0.00 26 1016.6
20260904151515 72 238 0.0 5.0 0.00 0.00 0.00 27 1016.7
20260904151015 72 240 1.0 4.0 0.00 0.00 0.00 27 1016.6
20260904150515 72 231 1.0 5.0 0.00 0.00 0.00 27 1016.6
20260904150015 72 232 0.0 4.0 0.00 0.00 0.00 26 1016.6
20260904145515 71 233 0.0 3.0 0.00 0.00 0.00 26 1016.6
20260904145015 71 234 0.0 2.0 0.00 0.00 0.00 26 1016.5
20260904144515 71 233 0.0 3.0 0.00 0.00 0.00 25 1016.5
20260904144016 71 233 0.0 3.0 0.00 0.00 0.00 26 1016.5
20260904143515 70 233 0.0 3.0 0.00 0.00 0.00 26 1016.4
20260904143016 70 234 1.0 2.0 0.00 0.00 0.00 26 1016.4
20260904142516 69 234 1.0 6.0 0.00 0.00 0.00 26 1016.4
20260904142016 69 237 1.0 7.0 0.00 0.00 0.00 26 1016.5
20260904141516 69 236 0.0 4.0 0.00 0.00 0.00 25 1016.5
20260904141016 69 236 0.0 0.0 0.00 0.00 0.00 26 1016.5
20260904140516 69 236 0.0 3.0 0.00 0.00 0.00 26 1016.4
20260904140016 69 236 0.0 3.0 0.00 0.00 0.00 26 1016.4
20260904135516 68 236 0.0 3.0 0.00 0.00 0.00 26 1016.3
20260904135016 68 238 0.0 5.0 0.00 0.00 0.00 25 1016.3
20260904134516 67 234 0.0 2.0 0.00 0.00 0.00 25 1016.2
20260904134016 67 234 0.0 3.0 0.00 0.00 0.00 25 1016.2
20260904133516 67 236 0.0 1.0 0.00 0.00 0.00 25 1016.1
20260904133016 66 237 0.0 2.0 0.00 0.00 0.00 24 1016.0
20260904132516 66 237 1.0 6.0 0.00 0.00 0.00 24 1016.0
20260904132016 66 239 1.0 4.0 0.00 0.00 0.00 24 1015.9
20260904131516 66 240 1.0 6.0 0.00 0.00 0.00 23 1015.9
20260904131016 66 235 1.0 8.0 0.00 0.00 0.00 23 1015.8
20260904130516 66 257 1.0 6.0 0.00 0.00 0.00 23 1015.7
20260904130016 66 227 1.0 8.0 0.00 0.00 0.00 22 1015.7
20260904125516 66 209 1.0 4.0 0.00 0.00 0.00 21 1015.7
20260904125016 66 208 1.0 5.0 0.00 0.00 0.00 20 1015.6
20260904124516 66 211 1.0 5.0 0.00 0.00 0.00 20 1015.5
20260904124016 66 208 1.0 7.0 0.00 0.00 0.00 20 1015.4
20260904123516 66 209 1.0 5.0 0.00 0.00 0.00 20 1015.4
20260904123016 66 208 1.0 3.0 0.00 0.00 0.00 20 1015.2
20260904122516 66 208 1.0 6.0 0.00 0.00 0.00 19 1015.2
20260904122016 66 205 1.0 4.0 0.00 0.00 0.00 20 1015.1
20260904121516 66 203 0.0 3.0 0.00 0.00 0.00 20 1015.1
20260904121016 66 202 1.0 3.0 0.00 0.00 0.00 19 1015.1
20260904120516 66 202 1.0 4.0 0.00 0.00 0.00 19 1015.1
20260904120016 66 205 2.0 6.0 0.00 0.00 0.00 19 1014.9
20260904115516 66 202 1.0 6.0 0.00 0.00 0.00 19 1014.9
20260904115016 66 203 1.0 4.0 0.00 0.00 0.00 20 1014.8
20260904114516 66 205 1.0 4.0 0.00 0.00 0.00 19 1014.9
20260904114016 66 211 2.0 4.0 0.00 0.00 0.00 19 1014.8
20260904113516 67 212 1.0 4.0 0.00 0.00 0.00 18 1014.8
20260904113016 67 212 1.0 3.0 0.00 0.00 0.00 18 1014.8
20260904112516 67 213 1.0 5.0 0.00 0.00 0.00 18 1014.8
20260904112016 68 213 1.0 5.0 0.00 0.00 0.00 18 1014.8
20260904111516 68 213 1.0 4.0 0.00 0.00 0.00 18 1014.8
20260904111016 68 230 2.0 3.0 0.00 0.00 0.00 18 1014.8
20260904110516 68 239 2.0 7.0 0.00 0.00 0.00 18 1014.8
20260904110016 68 239 2.0 5.0 0.00 0.00 0.00 18 1014.7
20260904105516 68 242 1.0 6.0 0.00 0.00 0.00 17 1014.7
20260904105016 68 243 1.0 6.0 0.00 0.00 0.00 18 1014.5
20260904104516 68 238 1.0 6.0 0.00 0.00 0.00 17 1014.6
20260904104016 68 240 2.0 4.0 0.00 0.00 0.00 18 1014.5
20260904103516 68 241 2.0 8.0 0.00 0.00 0.00 17 1014.5
20260904103016 68 242 2.0 4.0 0.00 0.00 0.00 17 1014.6
20260904102516 68 249 1.0 7.0 0.00 0.00 0.00 17 1014.6
20260904102016 68 249 1.0 7.0 0.00 0.00 0.00 17 1014.6
20260904101516 68 252 1.0 3.0 0.00 0.00 0.00 18 1014.5
20260904101016 68 252 2.0 4.0 0.00 0.00 0.00 18 1014.5
20260904100516 68 252 1.0 5.0 0.00 0.00 0.00 17 1014.4
20260904100016 67 252 1.0 5.0 0.00 0.00 0.00 18 1014.4
20260904095516 67 253 1.0 4.0 0.00 0.00 0.00 18 1014.4
20260904095016 67 253 0.0 3.0 0.00 0.00 0.00 18 1014.4
20260904094516 67 254 0.0 1.0 0.00 0.00 0.00 18 1014.5
20260904094016 67 254 0.0 2.0 0.00 0.00 0.00 18 1014.5
20260904093516 67 253 0.0 3.0 0.00 0.00 0.00 18 1014.5
20260904093016 67 254 0.0 3.0 0.00 0.00 0.00 18 1014.6
20260904092516 67 254 0.0 0.0 0.00 0.00 0.00 18 1014.6
20260904092016 67 254 0.0 3.0 0.00 0.00 0.00 18 1014.6
20260904091516 67 254 0.0 2.0 0.00 0.00 0.00 18 1014.5
20260904091016 67 254 0.0 3.0 0.00 0.00 0.00 18 1014.5
20260904090516 66 254 0.0 2.0 0.00 0.00 0.00 18 1014.5
20260904090016 66 254 0.0 2.0 0.00 0.00 0.00 19 1014.5
20260904085516 66 254 0.0 0.0 0.00 0.00 0.00 19 1014.5
20260904085016 66 254 0.0 0.0 0.00 0.00 0.00 21 1014.4
20260904084516 66 254 0.0 0.0 0.00 0.00 0.00 20 1014.5
20260904084016 66 254 0.0 0.0 0.00 0.00 0.00 20 1014.4
20260904083516 67 254 0.0 0.0 0.00 0.00 0.00 21 1014.4
20260904083016 67 254 0.0 0.0 0.00 0.00 0.00 20 1014.4
20260904082516 67 254 0.0 0.0 0.00 0.00 0.00 20 1014.3
20260904082016 68 254 0.0 1.0 0.00 0.00 0.00 20 1014.2
20260904081516 68 254 0.0 3.0 0.00 0.00 0.00 20 1014.1
20260904081016 68 254 0.0 0.0 0.00 0.00 0.00 20 1014.1
20260904080516 68 254 0.0 3.0 0.00 0.00 0.00 19 1014.0
20260904080016 68 254 0.0 0.0 0.00 0.00 0.00 19 1014.0
20260904075516 68 254 0.0 0.0 0.00 0.00 0.00 18 1014.1
20260904075016 68 254 0.0 0.0 0.00 0.00 0.00 19 1014.2
20260904074516 69 254 0.0 0.0 0.00 0.00 0.00 19 1014.2
20260904074016 69 254 0.0 3.0 0.00 0.00 0.00 18 1014.1
20260904073516 69 254 0.0 0.0 0.00 0.00 0.00 18 1014.1
20260904073016 69 254 1.0 5.0 0.00 0.00 0.00 18 1014.0
20260904072516 69 254 1.0 3.0 0.00 0.00 0.00 18 1013.9
20260904072016 70 254 0.0 3.0 0.00 0.00 0.00 18 1013.8